1487314800.94,23766,12.63,73658.0,-4.77,-32.39,-34.59,0,*52
1487314802.18,23767,12.56,73656.0,-4.77,-32.39,-34.47,0,*5C
1487314803.41,23768,12.63,73660.3,-4.77,-32.23,-34.47,0,*58
1487314804.66,23769,12.56,73656.0,-4.77,-32.29,-34.47,0,*53
1487314805.9,23770,12.63,73658.8,-4.77,-32.39,-34.47,0,*5A
1487314807.13,23771,12.63,73662.0,-4.73,-32.39,-34.47,0,*5F
1487314808.35,23772,12.63,73660.3,-4.73,-32.39,-34.41,0,*5A
1487314809.59,23773,12.63,73662.5,-4.77,-32.57,-34.59,0,*5E
1487314810.85,23774,12.56,73656.5,-4.77,-32.63,-34.47,0,*51
1487314812.07,23775,12.56,73656.5,-4.73,-32.51,-34.41,0,*53
1487314813.31,23776,12.56,73658.5,-4.77,-32.57,-34.47,0,*54
1487314814.57,23777,12.56,73656.8,-4.77,-32.63,-34.59,0,*5D
1487314815.82,23778,12.63,73662.5,-4.77,-32.63,-34.77,0,*5E
1487314817.09,23779,12.63,73658.0,-4.77,-32.75,-34.77,0,*58
1487314818.35,23780,12.63,73658.0,-4.77,-32.97,-35.01,0,*52
1487314819.58,23781,12.63,73658.3,-4.77,-33.03,-35.01,0,*5F
1487314820.82,23782,12.63,73658.3,-4.79,-33.09,-35.01,0,*58
1487314822.02,23783,12.63,73656.5,-4.79,-33.03,-35.01,0,*53
1487314823.31,23784,12.63,73656.0,-4.81,-32.79,-34.83,0,*54
1487314824.53,23785,12.56,73652.8,-4.79,-32.85,-34.71,0,*5C
1487314825.82,23786,12.56,73654.3,-4.81,-32.79,-34.65,0,*5E
1487314827.11,23787,12.56,73656.3,-4.81,-32.85,-34.65,0,*5C
1487314828.39,23788,12.63,73656.8,-4.81,-32.85,-34.53,0,*56
1487314829.63,23789,12.63,73658.0,-4.79,-32.79,-34.47,0,*56
1487314830.86,23790,12.56,73652.0,-4.79,-32.63,-34.47,0,*55
1487314832.11,23791,12.63,73654.3,-4.79,-32.63,-34.35,0,*51
1487314833.35,23792,12.63,73654.0,-4.79,-32.45,-34.31,0,*52
1487314834.6,23793,12.63,73656.3,-4.81,-32.51,-34.31,0,*51
1487314835.83,23794,12.63,73654.8,-4.79,-32.51,-34.19,0,*5B
1487314837.05,23795,12.56,73654.3,-4.79,-32.45,-34.13,0,*55
1487314838.28,23796,12.63,73658.0,-4.77,-32.39,-34.13,0,*53
1487314839.5,23797,12.63,73654.8,-4.79,-32.51,-34.19,0,*58
1487314840.73,23798,12.56,73654.3,-4.79,-32.51,-34.19,0,*57
1487314841.95,23799,12.63,73656.5,-4.73,-32.39,-34.07,0,*5D
1487314843.18,23800,12.63,73658.5,-4.77,-32.39,-34.07,0,*56
1487314844.4,23801,12.63,73660.0,-4.73,-32.35,-33.95,0,*53
1487314845.66,23802,12.63,73658.3,-4.73,-32.23,-34.01,0,*5D
1487314846.88,23803,12.63,73654.5,-4.73,-32.35,-33.95,0,*51
1487314848.14,23804,12.63,73654.5,-4.73,-32.39,-34.01,0,*50
1487314849.36,23805,12.63,73656.5,-4.73,-32.35,-33.95,0,*57
1487314850.58,23806,12.56,73654.3,-4.73,-32.35,-33.95,0,*54
1487314851.8,23807,12.63,73658.8,-4.73,-32.39,-33.95,0,*59
1487314853.02,23808,12.63,73656.3,-4.71,-32.35,-33.77,0,*54
1487314854.21,23809,12.63,73658.0,-4.71,-32.35,-33.83,0,*5E
1487314855.4,23810,12.63,73658.5,-4.71,-32.35,-33.83,0,*56
1487314856.65,23811,12.63,73656.3,-4.69,-32.35,-33.77,0,*55
1487314857.92,23812,12.63,73656.3,-4.69,-32.29,-33.77,0,*5B
1487314859.14,23813,12.63,73656.5,-4.71,-32.39,-33.77,0,*52
1487314860.39,23814,12.63,73658.0,-4.69,-32.35,-33.77,0,*50
1487314861.63,23815,12.63,73658.8,-4.69,-32.35,-33.77,0,*51
1487314862.88,23816,12.63,73656.8,-4.67,-32.35,-33.77,0,*5C
1487314864.16,23817,12.63,73658.0,-4.67,-32.19,-33.73,0,*57
1487314865.44,23818,12.63,73656.8,-4.67,-32.19,-33.61,0,*5B
1487314866.69,23819,12.63,73656.3,-4.67,-32.35,-33.61,0,*54
1487314867.91,23820,12.63,73658.3,-4.65,-32.29,-33.55,0,*56
1487314869.11,23821,12.63,73656.3,-4.65,-32.23,-33.55,0,*5D
1487314870.34,23822,12.63,73656.5,-4.65,-32.29,-33.67,0,*55
1487314871.61,23823,12.63,73656.0,-4.63,-32.29,-33.73,0,*57
1487314872.83,23824,12.63,73656.8,-4.63,-32.23,-33.67,0,*5F
1487314874.06,23825,12.63,73654.5,-4.63,-32.39,-33.67,0,*55
1487314875.31,23826,12.63,73656.8,-4.61,-32.19,-33.49,0,*5A
1487314876.51,23827,12.63,73656.5,-4.61,-32.13,-33.55,0,*5C
1487314877.78,23828,12.63,73658.8,-4.61,-32.19,-33.43,0,*5E
1487314879.04,23829,12.63,73658.5,-4.61,-32.19,-33.43,0,*5F
1487314880.3,23830,12.63,73656.8,-4.61,-32.19,-33.43,0,*57
1487314881.54,23831,12.63,73658.0,-4.59,-32.35,-33.49,0,*59
1487314882.78,23832,12.63,73656.5,-4.57,-32.01,-33.27,0,*5B
1487314884.01,23833,12.63,73656.8,-4.57,-32.13,-33.27,0,*59
1487314885.26,23834,12.63,73656.0,-4.57,-32.29,-33.43,0,*55
1487314886.51,23835,12.63,73656.3,-4.55,-32.19,-33.37,0,*56
1487314887.77,23836,12.63,73656.0,-4.55,-32.19,-33.37,0,*55
1487314888.99,23837,12.63,73652.8,-4.55,-32.13,-33.37,0,*5E
1487314890.22,23838,12.63,73654.8,-4.51,-32.13,-33.21,0,*52
1487314891.45,23839,12.63,73658.3,-4.51,-32.13,-33.21,0,*53
1487314892.68,23840,12.63,73656.0,-4.49,-32.13,-33.31,0,*55
1487314893.9,23841,12.63,73656.0,-4.49,-32.13,-33.31,0,*54
1487314895.18,23842,12.63,73656.3,-4.47,-32.19,-33.31,0,*53
1487314896.43,23843,12.63,73654.0,-4.47,-32.23,-33.27,0,*5C
1487314897.68,23844,12.63,73660.8,-4.47,-32.23,-33.31,0,*5C
1487314898.91,23845,12.63,73656.8,-4.45,-32.23,-33.31,0,*5F
1487314900.16,23846,12.63,73656.8,-4.45,-32.19,-33.31,0,*55
1487314901.42,23847,12.63,73656.8,-4.45,-32.19,-33.27,0,*53
1487314902.65,23848,12.63,73652.8,-4.43,-32.13,-33.21,0,*56
1487314903.91,23849,12.63,73658.5,-4.43,-32.19,-33.37,0,*5A
1487314905.18,23850,12.63,73654.5,-4.43,-32.29,-33.43,0,*52
1487314906.46,23851,12.63,73658.5,-4.43,-32.29,-33.27,0,*51
1487314907.69,23852,12.63,73656.0,-4.41,-32.23,-33.31,0,*5D
1487314908.92,23853,12.63,73652.3,-4.41,-32.23,-33.31,0,*5C
1487314910.14,23854,12.63,73652.5,-4.41,-32.23,-33.31,0,*5B
1487314911.37,23855,12.63,73658.3,-4.39,-32.35,-33.37,0,*54
1487314912.59,23856,12.63,73658.3,-4.37,-32.45,-33.55,0,*5A
1487314913.84,23857,12.63,73656.0,-4.37,-32.19,-33.31,0,*50
1487314915.13,23858,12.63,73658.0,-4.35,-32.19,-33.31,0,*5D
1487314916.38,23859,12.63,73656.0,-4.37,-32.29,-33.43,0,*58
1487314917.67,23860,12.63,73654.0,-4.35,-32.29,-33.27,0,*52
1487314918.93,23861,12.63,73656.3,-4.35,-32.23,-33.31,0,*5E
1487314920.17,23862,12.63,73654.8,-4.33,-32.23,-33.09,0,*50
1487314921.4,23863,12.63,73658.5,-4.33,-32.35,-33.43,0,*58
1487314922.64,23864,12.63,73656.5,-4.33,-32.35,-33.27,0,*5D
1487314923.88,23865,12.63,73658.0,-4.29,-32.23,-33.27,0,*50
1487314925.12,23866,12.63,73656.8,-4.29,-32.35,-33.43,0,*56
1487314926.37,23867,12.63,73658.0,-4.29,-32.39,-33.43,0,*5B
1487314927.61,23868,12.63,73658.0,-4.29,-32.35,-33.49,0,*52
1487314928.85,23869,12.63,73658.5,-4.29,-32.39,-33.49,0,*5F
1487314930.12,23870,12.63,73654.8,-4.27,-32.45,-33.37,0,*5B
1487314931.41,23871,12.63,73652.5,-4.27,-32.45,-33.43,0,*59
1487314932.62,23872,12.63,73656.3,-4.25,-32.51,-33.55,0,*5A
1487314933.88,23873,12.63,73656.3,-4.27,-32.63,-33.55,0,*58
1487314935.12,23874,12.63,73654.0,-4.27,-32.51,-33.55,0,*5E
1487314936.33,23875,12.63,73658.3,-4.25,-32.51,-33.55,0,*5D
1487314937.58,23876,12.63,73656.5,-4.25,-32.51,-33.43,0,*59
1487314938.81,23877,12.63,73658.0,-4.25,-32.63,-33.55,0,*5E
1487314940.07,23878,12.63,73654.0,-4.23,-32.63,-33.55,0,*57
1487314941.34,23879,12.63,73656.8,-4.23,-32.63,-33.67,0,*57
1487314942.61,23880,12.63,73656.5,-4.23,-32.75,-33.67,0,*56
1487314943.87,23881,12.63,73658.3,-4.23,-32.63,-33.67,0,*50
1487314945.11,23882,12.63,73658.3,-4.21,-32.79,-33.55,0,*5B
1487314946.36,23883,12.63,73656.8,-4.21,-32.79,-33.67,0,*5B
1487314947.6,23884,12.63,73656.0,-4.21,-33.09,-33.83,0,*50
1487314948.87,23885,12.63,73656.0,-4.21,-33.09,-34.01,0,*5C
1487314950.11,23886,12.63,73654.8,-4.23,-32.91,-33.67,0,*5A
1487314951.35,23887,12.63,73654.5,-4.21,-32.91,-33.73,0,*5C
1487314952.59,23888,12.63,73654.3,-4.21,-32.79,-33.55,0,*51
1487314953.85,23889,12.63,73652.8,-4.19,-32.69,-33.61,0,*5D
1487314955.12,23890,12.63,73656.3,-4.19,-33.21,-34.01,0,*59
1487314956.4,23891,12.63,73654.5,-4.19,-33.27,-34.19,0,*57
1487314957.64,23892,12.63,73654.8,-4.17,-33.03,-33.73,0,*57
1487314958.91,23893,12.63,73658.3,-4.19,-32.91,-33.77,0,*56
1487314960.16,23894,12.63,73656.3,-4.19,-32.91,-33.61,0,*56
1487314961.45,23895,12.63,73652.5,-4.19,-32.85,-33.61,0,*52
1487314962.71,23896,12.63,73656.0,-4.17,-32.79,-33.61,0,*5C
1487314963.99,23897,12.63,73654.8,-4.17,-32.79,-33.73,0,*5E
1487314965.25,23898,12.63,73654.5,-4.17,-32.85,-33.61,0,*51
1487314966.54,23899,12.63,73656.5,-4.15,-32.97,-33.77,0,*56
1487314967.77,23900,12.63,73656.8,-4.15,-33.21,-34.13,0,*5E
1487314969.01,23901,12.63,73654.0,-4.15,-33.37,-34.25,0,*5D
1487314970.27,23902,12.63,73658.0,-4.15,-33.15,-33.89,0,*5F
1487314971.51,23903,12.63,73654.0,-4.15,-33.21,-33.95,0,*54
1487314972.77,23904,12.63,73652.8,-4.15,-33.03,-33.89,0,*5E
1487314974.04,23905,12.63,73652.5,-4.13,-32.97,-33.89,0,*55
1487314975.27,23906,12.63,73658.3,-4.15,-33.21,-33.95,0,*51
1487314976.51,23907,12.63,73656.8,-4.15,-33.37,-34.25,0,*5B
1487314977.75,23908,12.63,73654.3,-4.15,-33.37,-34.13,0,*51
1487314978.99,23909,12.63,73654.0,-4.13,-33.15,-34.01,0,*55
1487314980.25,23910,12.63,73654.0,-4.15,-33.27,-33.95,0,*50
1487314981.52,23911,12.63,73656.8,-4.13,-33.09,-33.89,0,*56
1487314982.76,23912,12.63,73656.8,-4.13,-33.21,-34.19,0,*51
1487314984.02,23913,12.63,73654.8,-4.13,-33.31,-34.19,0,*51
1487314985.23,23914,12.63,73652.5,-4.13,-33.37,-34.25,0,*5F
1487314986.51,23915,12.63,73656.5,-4.15,-33.43,-34.31,0,*5E
1487314987.75,23916,12.63,73656.0,-4.13,-33.31,-34.07,0,*5B
1487314988.99,23917,12.63,73654.8,-4.13,-33.37,-34.19,0,*53
1487314990.26,23918,12.63,73654.3,-4.13,-33.49,-34.19,0,*55
1487314991.52,23919,12.63,73654.5,-4.13,-33.49,-34.31,0,*5E
1487314992.76,23920,12.63,73656.0,-4.13,-33.55,-34.31,0,*59
1487314994.02,23921,12.63,73654.3,-4.11,-33.73,-34.47,0,*5F
1487314995.27,23922,12.63,73656.8,-4.13,-33.83,-34.65,0,*51
1487314996.5,23923,12.63,73654.8,-4.13,-33.67,-34.47,0,*5A
1487314997.73,23924,12.63,73658.3,-4.13,-33.67,-34.31,0,*5C
1487314998.94,23925,12.63,73652.5,-4.13,-33.55,-34.25,0,*59
1487315000.18,23926,12.63,73654.8,-4.13,-33.49,-34.25,0,*57
1487315001.42,23927,12.63,73656.5,-4.13,-33.49,-34.25,0,*56
1487315002.65,23928,12.63,73652.5,-4.13,-33.55,-34.31,0,*51
1487315003.92,23929,12.63,73656.5,-4.13,-33.73,-34.31,0,*54
1487315005.16,23930,12.69,73658.0,-4.13,-33.67,-34.31,0,*59
1487315006.43,23931,12.63,73654.3,-4.11,-33.73,-34.47,0,*5E
1487315007.71,23932,12.63,73656.0,-4.11,-33.89,-34.65,0,*58
1487315008.98,23933,12.63,73658.5,-4.11,-34.07,-34.95,0,*57
1487315010.23,23934,12.63,73654.8,-4.13,-34.01,-34.59,0,*54
1487315011.5,23935,12.63,73654.3,-4.13,-33.89,-34.65,0,*5D
1487315012.74,23936,12.63,73654.3,-4.13,-34.19,-35.01,0,*53
1487315013.99,23937,12.63,73656.0,-4.13,-34.01,-34.77,0,*5B
1487315015.24,23938,12.63,73656.0,-4.13,-34.01,-34.59,0,*58
1487315016.5,23939,12.63,73656.3,-4.13,-33.89,-34.65,0,*51
1487315017.77,23940,12.63,73658.0,-4.15,-34.07,-34.83,0,*50
1487315019.04,23941,12.63,73656.5,-4.15,-34.07,-34.83,0,*51
1487315020.28,23942,12.63,73654.8,-4.13,-34.01,-34.59,0,*55
1487315021.5,23943,12.63,73656.3,-4.13,-34.07,-34.77,0,*5E
1487315022.76,23944,12.63,73654.8,-4.13,-34.07,-34.65,0,*5A
1487315024.0,23945,12.63,73652.3,-4.13,-34.07,-34.83,0,*53
1487315025.24,23946,12.63,73654.5,-4.13,-34.01,-34.59,0,*51
1487315026.49,23947,12.63,73654.8,-4.15,-34.07,-34.71,0,*5A
1487315027.76,23948,12.63,73654.3,-4.15,-34.07,-34.83,0,*58
1487315028.98,23949,12.63,73652.3,-4.13,-34.07,-34.77,0,*54
1487315030.25,23950,12.63,73654.8,-4.15,-34.13,-34.65,0,*5C
1487315031.5,23951,12.63,73652.0,-4.15,-34.07,-34.71,0,*5D
1487315032.76,23952,12.63,73658.3,-4.15,-34.25,-34.83,0,*53
1487315034.03,23953,12.63,73654.5,-4.15,-34.13,-34.65,0,*5F
1487315035.25,23954,12.69,73658.0,-4.13,-33.83,-34.59,0,*5F
1487315036.51,23955,12.69,73660.3,-4.15,-34.13,-34.83,0,*51
1487315037.77,23956,12.69,73658.5,-4.15,-34.25,-34.83,0,*57
1487315039.03,23957,12.69,73658.8,-4.15,-34.25,-34.83,0,*56
1487315040.3,23958,12.69,73656.0,-4.15,-34.13,-34.83,0,*5C
1487315041.57,23959,12.63,73656.0,-4.13,-34.01,-34.65,0,*50
1487315042.82,23960,12.63,73656.5,-4.15,-34.07,-34.71,0,*5F
1487315044.08,23961,12.63,73656.8,-4.15,-34.13,-34.83,0,*56
1487315045.33,23962,12.69,73658.5,-4.15,-34.47,-35.17,0,*58
1487315046.6,23963,12.63,73656.0,-4.15,-34.35,-35.01,0,*5B
1487315047.87,23964,12.69,73656.5,-4.13,-34.19,-34.83,0,*5F
1487315049.13,23965,12.69,73656.8,-4.15,-34.13,-34.83,0,*52
1487315050.4,23966,12.63,73652.8,-4.15,-34.13,-34.83,0,*51
1487315051.63,23967,12.69,73658.8,-4.13,-34.25,-34.83,0,*53
1487315052.88,23968,12.63,73656.8,-4.13,-34.07,-34.83,0,*5C
1487315054.12,23969,12.69,73658.5,-4.15,-34.13,-34.71,0,*53
1487315055.36,23970,12.69,73656.0,-4.13,-34.01,-34.59,0,*54
1487315056.61,23971,12.69,73658.8,-4.13,-34.07,-34.65,0,*5C
1487315057.86,23972,12.63,73654.5,-4.15,-34.13,-34.71,0,*59
1487315059.1,23973,12.69,73656.8,-4.13,-34.01,-34.59,0,*57
1487315060.39,23974,12.63,73658.0,-4.15,-34.35,-35.07,0,*5B
1487315061.66,23975,12.69,73658.8,-4.15,-34.35,-35.01,0,*5C
1487315062.91,23976,12.69,73656.8,-4.15,-34.25,-35.01,0,*5E
1487315064.17,23977,12.69,73658.8,-4.15,-34.13,-34.83,0,*51
1487315065.44,23978,12.69,73658.3,-4.15,-34.13,-34.83,0,*5E
1487315066.68,23979,12.63,73652.8,-4.15,-34.13,-34.89,0,*55
1487315067.94,23980,12.69,73660.0,-4.15,-34.25,-34.83,0,*5C
1487315069.2,23981,12.63,73654.0,-4.15,-34.25,-34.83,0,*5D
1487315070.46,23982,12.69,73658.5,-4.15,-34.35,-34.89,0,*55
1487315071.73,23983,12.63,73652.8,-4.15,-34.31,-34.89,0,*50
1487315072.99,23984,12.69,73656.3,-4.15,-34.31,-34.89,0,*57
1487315074.26,23985,12.69,73658.0,-4.15,-34.31,-34.89,0,*56
1487315075.52,23986,12.63,73654.3,-4.15,-34.25,-34.83,0,*5A
1487315076.76,23987,12.69,73656.8,-4.13,-34.19,-34.77,0,*59
1487315078.0,23988,12.69,73656.8,-4.17,-34.31,-34.89,0,*59
1487315079.22,23989,12.69,73658.3,-4.17,-34.25,-34.71,0,*5A
1487315080.48,23990,12.69,73656.5,-4.17,-34.31,-34.83,0,*5A
1487315081.78,23991,12.69,73656.5,-4.15,-34.31,-35.07,0,*54
1487315083.02,23992,12.69,73658.0,-4.13,-34.19,-34.77,0,*5D
1487315084.28,23993,12.69,73658.0,-4.15,-34.25,-34.83,0,*5E
1487315085.54,23994,12.69,73656.8,-4.13,-34.19,-34.83,0,*50
1487315086.81,23995,12.69,73656.3,-4.15,-34.25,-34.83,0,*58
1487315088.07,23996,12.69,73654.8,-4.15,-34.25,-34.83,0,*5B
1487315089.33,23997,12.69,73656.3,-4.15,-34.31,-34.89,0,*55
1487315090.57,23998,12.69,73658.0,-4.15,-34.25,-34.89,0,*5F
1487315091.83,23999,12.69,73658.3,-4.15,-34.31,-34.89,0,*5B
1487315093.1,24000,12.69,73658.5,-4.15,-34.35,-34.89,0,*51
1487315094.36,24001,12.69,73652.3,-4.15,-34.31,-34.89,0,*54
1487315095.62,24002,12.69,73658.5,-4.15,-34.35,-34.89,0,*53
1487315096.91,24003,12.69,73656.0,-4.15,-34.31,-34.83,0,*5C
1487315098.2,24004,12.69,73656.3,-4.15,-34.31,-34.83,0,*5B
1487315099.44,24005,12.69,73658.3,-4.17,-34.31,-34.89,0,*52
1487315100.73,24006,12.69,73652.8,-4.15,-34.31,-34.83,0,*59
1487315101.98,24007,12.69,73656.8,-4.13,-34.31,-34.77,0,*55
1487315103.25,24008,12.69,73658.3,-4.15,-34.35,-35.01,0,*58
1487315104.49,24009,12.69,73654.3,-4.15,-34.25,-34.89,0,*59
1487315105.7,24010,12.69,73656.0,-4.17,-34.25,-34.89,0,*53
1487315106.93,24011,12.69,73654.5,-4.17,-34.47,-35.01,0,*57
1487315108.15,24012,12.69,73658.3,-4.17,-34.47,-35.17,0,*53
1487315109.42,24013,12.69,73658.8,-4.17,-34.35,-34.83,0,*5B
1487315110.66,24014,12.69,73658.0,-4.17,-34.13,-34.83,0,*58
1487315111.92,24015,12.69,73658.3,-4.17,-34.31,-34.83,0,*59
1487315113.15,24016,12.69,73656.8,-4.17,-34.47,-35.01,0,*50
1487315114.39,24017,12.69,73658.8,-4.17,-34.25,-34.83,0,*5E
1487315115.65,24018,12.69,73658.3,-4.17,-34.31,-34.83,0,*54
1487315116.94,24019,12.69,73656.5,-4.15,-34.31,-34.83,0,*57
1487315118.18,24020,12.69,73654.8,-4.17,-34.25,-34.65,0,*52
1487315119.45,24021,12.69,73656.5,-4.17,-34.31,-34.83,0,*5E
1487315120.71,24022,12.69,73658.8,-4.17,-34.31,-34.83,0,*5D
1487315122.01,24023,12.69,73656.0,-4.19,-34.53,-35.07,0,*5B
1487315123.28,24024,12.69,73656.8,-4.19,-34.41,-34.95,0,*55
1487315124.52,24025,12.69,73656.8,-4.17,-34.31,-34.89,0,*50
1487315125.75,24026,12.69,73660.0,-4.17,-34.25,-34.83,0,*5C
1487315127.02,24027,12.69,73658.8,-4.19,-34.35,-34.77,0,*59
1487315128.26,24028,12.69,73654.5,-4.17,-34.31,-34.89,0,*5D
1487315129.53,24029,12.69,73654.8,-4.17,-34.31,-34.83,0,*56
1487315130.79,24030,12.69,73654.5,-4.17,-34.31,-35.07,0,*53
1487315132.04,24031,12.69,73654.8,-4.17,-34.31,-34.89,0,*55
1487315133.3,24032,12.69,73654.5,-4.17,-34.31,-34.83,0,*5C
1487315134.57,24033,12.69,73658.0,-4.15,-34.35,-35.01,0,*50
1487315135.84,24034,12.69,73658.0,-4.19,-34.41,-34.95,0,*54
1487315137.1,24035,12.69,73654.3,-4.17,-34.35,-34.83,0,*5F
1487315138.35,24036,12.69,73658.8,-4.17,-34.25,-34.95,0,*5A
1487315139.62,24037,12.69,73658.5,-4.19,-34.31,-34.77,0,*5C
1487315140.88,24038,12.69,73656.3,-4.19,-34.35,-34.89,0,*56
1487315142.17,24039,12.69,73656.3,-4.19,-34.35,-34.95,0,*5A
1487315143.44,24040,12.69,73658.3,-4.17,-34.31,-34.83,0,*59
1487315144.7,24041,12.69,73654.8,-4.17,-34.35,-34.83,0,*5C
1487315145.97,24042,12.69,73658.3,-4.19,-34.41,-35.07,0,*5F
1487315147.24,24043,12.69,73658.3,-4.19,-34.53,-35.01,0,*5B
1487315148.51,24044,12.69,73656.3,-4.19,-34.41,-34.95,0,*53
1487315149.77,24045,12.69,73654.3,-4.19,-34.35,-34.89,0,*5C
1487315151.01,24046,12.69,73654.5,-4.17,-34.35,-34.89,0,*51
1487315152.31,24047,12.69,73652.8,-4.19,-34.35,-34.95,0,*53
1487315153.57,24048,12.69,73654.5,-4.19,-34.35,-34.89,0,*51
1487315154.84,24049,12.69,73656.8,-4.17,-34.31,-34.65,0,*58
1487315156.11,24050,12.69,73656.3,-4.19,-34.31,-34.77,0,*5D
1487315157.33,24051,12.69,73658.8,-4.17,-34.25,-34.71,0,*51
1487315158.59,24052,12.69,73656.5,-4.19,-34.35,-34.77,0,*5B
1487315159.86,24053,12.69,73656.0,-4.19,-34.41,-34.95,0,*55
1487315161.1,24054,12.69,73654.5,-4.19,-34.41,-34.89,0,*5F
1487315162.36,24055,12.69,73656.5,-4.17,-34.31,-34.83,0,*5D
1487315163.63,24056,12.69,73658.8,-4.19,-34.53,-34.89,0,*5E
1487315164.87,24057,12.69,73654.3,-4.19,-34.41,-34.89,0,*5C
1487315166.14,24058,12.69,73658.0,-4.19,-34.31,-34.77,0,*55
1487315167.4,24059,12.69,73656.0,-4.19,-34.35,-34.77,0,*50
1487315168.65,24060,12.69,73652.8,-4.17,-34.25,-34.65,0,*56
1487315169.92,24061,12.69,73658.3,-4.19,-34.31,-34.77,0,*5F
1487315171.18,24062,12.69,73656.5,-4.19,-34.35,-34.77,0,*58
1487315172.45,24063,12.69,73652.0,-4.19,-34.35,-34.89,0,*58
1487315173.71,24064,12.69,73656.8,-4.19,-34.35,-34.89,0,*5F
1487315174.98,24065,12.69,73652.8,-4.19,-34.41,-34.95,0,*50
1487315176.21,24066,12.69,73654.8,-4.19,-34.41,-34.89,0,*5E
1487315177.48,24067,12.69,73654.5,-4.19,-34.35,-34.77,0,*5D
1487315178.7,24068,12.69,73654.5,-4.21,-34.25,-34.77,0,*58
1487315179.94,24069,12.69,73652.5,-4.21,-34.41,-34.83,0,*50
1487315181.16,24070,12.69,73656.8,-4.21,-34.41,-35.01,0,*53
1487315182.41,24071,12.69,73656.3,-4.21,-34.59,-34.95,0,*57
1487315183.65,24072,12.69,73658.3,-4.21,-34.47,-34.83,0,*5C
1487315184.89,24073,12.69,73654.5,-4.21,-34.41,-34.83,0,*5B
1487315186.14,24074,12.69,73656.3,-4.21,-34.47,-34.95,0,*5D
1487315187.42,24075,12.69,73654.5,-4.23,-34.47,-34.95,0,*5E
1487315188.64,24076,12.69,73654.3,-4.21,-34.41,-34.77,0,*55
1487315189.87,24077,12.69,73658.0,-4.21,-34.41,-34.83,0,*5F
1487315191.14,24078,12.69,73654.0,-4.21,-34.35,-34.83,0,*53
1487315192.39,24079,12.69,73652.5,-4.21,-34.47,-34.95,0,*50
1487315193.63,24080,12.69,73658.0,-4.21,-34.41,-34.83,0,*57
1487315194.88,24081,12.69,73656.5,-4.23,-34.41,-34.83,0,*54
1487315196.13,24082,12.69,73656.5,-4.21,-34.95,-35.47,0,*55
1487315197.36,24083,12.69,73652.8,-4.21,-34.77,-35.01,0,*5A
1487315198.61,24084,12.69,73656.0,-4.21,-34.47,-34.95,0,*52
1487315199.86,24085,12.69,73656.0,-4.23,-34.47,-35.01,0,*5D
1487315201.13,24086,12.69,73652.8,-4.23,-34.47,-34.83,0,*55
1487315202.38,24087,12.69,73652.0,-4.23,-34.47,-35.01,0,*5F
1487315203.64,24088,12.69,73656.0,-4.23,-34.65,-35.17,0,*57
1487315204.91,24089,12.69,73654.5,-4.23,-34.83,-35.17,0,*5E
1487315206.17,24090,12.69,73654.3,-4.23,-34.83,-35.17,0,*56
1487315207.47,24091,12.69,73656.0,-4.23,-34.65,-34.95,0,*54
1487315208.72,24092,12.69,73654.5,-4.25,-34.65,-35.01,0,*5D
1487315209.98,24093,12.69,73658.3,-4.25,-34.53,-34.83,0,*52
1487315211.23,24094,12.69,73656.0,-4.25,-34.65,-34.89,0,*5A
1487315212.5,24095,12.69,73656.5,-4.23,-34.47,-34.95,0,*50
1487315213.75,24096,12.69,73656.8,-4.25,-34.65,-35.01,0,*59
1487315214.97,24097,12.69,73656.8,-4.25,-34.47,-34.89,0,*59
1487315216.21,24098,12.69,73658.0,-4.25,-34.65,-34.89,0,*56
1487315217.47,24099,12.69,73652.5,-4.27,-34.53,-34.89,0,*50
1487315218.74,24100,12.69,73654.5,-4.25,-34.65,-34.83,0,*5C
1487315220.01,24101,12.69,73652.8,-4.27,-34.53,-34.89,0,*50
1487315221.23,24102,12.69,73654.3,-4.25,-34.47,-34.89,0,*54
1487315222.45,24103,12.69,73656.5,-4.25,-34.71,-35.01,0,*51
1487315223.68,24104,12.69,73654.0,-4.25,-34.71,-35.01,0,*56
1487315224.95,24105,12.69,73656.3,-4.27,-34.53,-35.01,0,*55
1487315226.24,24106,12.69,73654.5,-4.27,-34.53,-34.83,0,*5D
1487315227.51,24107,12.69,73652.8,-4.27,-34.53,-34.89,0,*56
1487315228.78,24108,12.69,73652.5,-4.27,-34.53,-34.89,0,*59
1487315230.07,24109,12.69,73654.0,-4.27,-34.65,-34.83,0,*57
1487315231.36,24110,12.75,73656.0,-4.27,-34.53,-34.83,0,*5A
1487315232.63,24111,12.69,73656.3,-4.27,-34.53,-34.89,0,*51
1487315233.92,24112,12.75,73656.3,-4.27,-34.53,-34.83,0,*58
1487315235.14,24113,12.75,73658.8,-4.29,-34.59,-34.89,0,*57
1487315236.39,24114,12.75,73656.5,-4.29,-34.53,-34.89,0,*5A
1487315237.63,24115,12.69,73654.0,-4.29,-34.53,-34.89,0,*5B
1487315238.88,24116,12.69,73654.3,-4.29,-34.53,-34.89,0,*58
1487315240.12,24117,12.69,73652.5,-4.29,-34.53,-34.77,0,*58
1487315241.35,24118,12.69,73654.3,-4.29,-34.59,-34.89,0,*5C
1487315242.57,24119,12.69,73656.0,-4.29,-34.59,-34.89,0,*5D
1487315243.84,24120,12.69,73652.5,-4.29,-34.53,-34.95,0,*50
1487315245.06,24121,12.69,73652.5,-4.29,-34.59,-34.89,0,*56
1487315246.29,24122,12.69,73652.5,-4.33,-34.59,-34.77,0,*5F
1487315247.54,24123,12.75,73658.8,-4.29,-34.53,-34.77,0,*5F
1487315248.78,24124,12.69,73658.5,-4.33,-34.59,-34.95,0,*55
1487315250.03,24125,12.75,73660.5,-4.29,-34.53,-34.89,0,*58
1487315251.28,24126,12.69,73654.3,-4.29,-34.53,-34.77,0,*5A
1487315252.53,24127,12.69,73652.3,-4.29,-34.53,-34.77,0,*5B
1487315253.77,24128,12.69,73654.0,-4.33,-34.77,-35.23,0,*59
1487315255.02,24129,12.69,73656.5,-4.29,-34.71,-34.95,0,*59
1487315256.24,24130,12.69,73652.8,-4.33,-34.47,-34.89,0,*52
1487315257.48,24131,12.75,73658.0,-4.33,-34.53,-34.77,0,*57
1487315258.73,24132,12.69,73654.8,-4.33,-34.53,-34.77,0,*54
1487315259.98,24133,12.69,73652.5,-4.33,-34.53,-34.77,0,*55
1487315261.2,24134,12.69,73654.5,-4.33,-34.71,-34.77,0,*52
1487315262.42,24135,12.69,73654.5,-4.33,-34.59,-34.89,0,*58
1487315263.64,24136,12.69,73654.8,-4.33,-34.59,-34.77,0,*5A
1487315264.88,24137,12.75,73656.5,-4.33,-34.89,-35.07,0,*50
1487315266.15,24138,12.69,73654.3,-4.35,-34.77,-34.95,0,*52
1487315267.39,24139,12.75,73656.3,-4.35,-34.77,-35.01,0,*5F
1487315268.66,24140,12.69,73652.0,-4.35,-34.77,-34.95,0,*5D
1487315269.9,24141,12.69,73652.3,-4.37,-34.77,-34.95,0,*5E
1487315271.17,24142,12.75,73656.5,-4.35,-34.59,-34.95,0,*53
1487315272.38,24143,12.75,73658.3,-4.37,-34.59,-34.77,0,*5C
1487315273.61,24144,12.75,73654.8,-4.37,-34.59,-34.83,0,*50
1487315274.86,24145,12.75,73652.5,-4.37,-34.65,-34.83,0,*5E
1487315276.15,24146,12.69,73652.0,-4.35,-34.65,-34.95,0,*58
1487315277.39,24147,12.69,73652.5,-4.37,-34.77,-34.95,0,*58
1487315278.59,24148,12.75,73656.5,-4.37,-35.01,-35.17,0,*5C
1487315279.83,24149,12.75,73654.0,-4.37,-34.77,-34.95,0,*56
1487315281.06,24150,12.75,73658.5,-4.37,-34.77,-34.95,0,*5E
1487315282.28,24151,12.75,73656.8,-4.41,-34.71,-35.01,0,*54
1487315283.55,24152,12.69,73652.8,-4.39,-34.83,-35.07,0,*53
1487315284.81,24153,12.75,73652.3,-4.39,-34.83,-35.01,0,*54
1487315286.05,24154,12.69,73654.0,-4.39,-34.71,-35.01,0,*5E
1487315287.28,24155,12.75,73652.5,-4.37,-34.77,-34.95,0,*5B
1487315288.53,24156,12.75,73656.0,-4.39,-34.89,-35.07,0,*5D
1487315289.73,24157,12.75,73658.3,-4.41,-34.89,-35.01,0,*55
1487315290.97,24158,12.75,73652.8,-4.41,-34.83,-35.01,0,*50
1487315292.19,24159,12.75,73652.8,-4.41,-34.71,-35.01,0,*5C
1487315293.4,24160,12.75,73656.5,-4.41,-34.71,-34.89,0,*57
1487315294.6,24161,12.75,73652.8,-4.41,-34.71,-34.89,0,*56
1487315295.84,24162,12.69,73654.0,-4.41,-34.71,-34.83,0,*5F
1487315297.07,24163,12.75,73656.0,-4.39,-34.71,-34.89,0,*5B
1487315298.3,24164,12.75,73654.5,-4.41,-34.65,-34.71,0,*51
1487315299.53,24165,12.75,73658.8,-4.41,-34.71,-34.83,0,*58